ROMMA est une association bénévole à but non lucratif. Votre soutien est indispensable : ADHERER à ROMMA ou FAIRE un DON

Chambon - (38, Isère)

Oisans (2460 m)   Longitude: 06° 10' 42" E   Latitude: 45° 01' 32" N Station partenaire n°803
 

Détail journalier du     <<     >>

Température Humidité Vent Dir Rafale Dir. rafale Neige 1 Neige 2
Heure (°C) (%) (km/h) (km/h) (cm) (cm)
01:00 0.59314SO35SO03
02:00 0.78911SSO23SO03
03:00 0.6856SSE19SSE03
04:00 -0.61006S19SO03
05:00 -0.610012NE25NE03
06:00 -1.010022NE32NE03
07:00 -0.99319NE36NE03
08:00 -0.68626NE44NE03
09:00 0.18225NE48NE03
10:00 -0.18721NE47NE03
11:00 2.18014NE33NE03
12:00 3.0749NE19NE03
13:00 4.3743N13N03
14:00 4.9752NE15ONO03
15:00 4.7802NNE15ONO03
16:00 4.4822NNE16O03
17:00 4.7812NNE15O02
18:00 4.3816NNE16OSO02
19:00 2.2894S15OSO03
20:00 1.2945S15SO03
21:00 1.1927SO15SO03
22:00 0.69510SO19SO03
23:00 0.5908ENE17SO03
minuit 1.4762NNE12ENE03

Graphique du 05-10-2019

 

Serveur OMMA